Regional Weather Roundup
Issued by NWS

Home | Current Version | Previous Version | Graphics & Text | Print | Product List | Glossary Off
Versions: 1 2 3 4 5 6 7 8 9 10 11 12 13 14 15 16 17 18 19 20 21 22 23 24 25 26 27

000
ASUS45 KBOU 291707
RWRCO

WEATHER ROUNDUP FOR COLORADO
NATIONAL WEATHER SERVICE DENVER/BOULDER CO
1100 AM MDT SUN MAY 29 2016

NOTE: "FAIR" INDICATES FEW OR NO CLOUDS BELOW 12000 FEET WITH NO
SIGNIFICANT WEATHER AND/OR OBSTRUCTIONS TO VISIBILITY.

COZ001>005-013-030-031-291800-
...NORTHWEST COLORADO...

CITY           SKY/WX    TMP DP  RH WIND       PRES   REMARKS
CRAIG          FAIR      65  35  33 CALM      30.21F
HAYDEN         FAIR      63  32  31 N6        30.23S
MEEKER         FAIR      67  38  34 SW5       30.21F
MOUNT WERNER   NOT AVBL
STEAMBOAT SPGS FAIR      63  35  35 W6        30.24S
WALDEN         NOT AVBL
$$

COZ006>008-011-291800-
...WEST CENTRAL VALLEYS...

CITY           SKY/WX    TMP DP  RH WIND       PRES   REMARKS
GRAND JUNCTION FAIR      71  35  26 CALM      30.14F
MONTROSE       FAIR      67  34  29 NW6       30.19F
EAGLE          SUNNY     59  34  38 CALM      30.27F
RIFLE          FAIR      67  37  33 VRB3      30.19F
DELTA          FAIR      71  35  26 SE5       30.17F
NUCLA          FAIR      68  32  26 CALM      30.21F
$$

COZ017>023-064>068-291800-
...SOUTHWEST COLORADO...

CITY           SKY/WX    TMP DP  RH WIND       PRES   REMARKS
DURANGO        FAIR      70  27  20 VRB7      30.22F
CORTEZ         FAIR      77  30  17 S12       30.16F
PAGOSA SPRINGS FAIR      66  13  13 S5        30.29S
TELLURIDE      CLOUDY    60  21  22 W5        30.35S
WOLF CREEK PAS PTSUNNY   46  21  36 SW9G16    30.55S
$$

COZ009-010-012-014-032>034-037-058>063-291800-
...CENTRAL COLORADO...

CITY           SKY/WX    TMP DP  RH WIND       PRES   REMARKS
ASPEN          FAIR      65  29  25 N8        30.27F
BUENA VISTA    FAIR      61  28  28 E8        30.31F
COPPER MTN     NOT AVBL
BERTHOUD PASS  PTSUNNY   36  28  75 NW7G18    30.53R
COTTONWOOD PAS PTSUNNY   59  25  27 E6        30.41S
GUNNISON       FAIR      59  28  31 S3        30.32F
KREMMLING      FAIR      59  34  38 CALM      30.29F
LEADVILLE      PTSUNNY   53  18  25 SW12      30.38F
MONARCH PASS   FAIR      43  23  45 W18G25    30.62R
SALIDA         FAIR      62  32  32 E5        30.36F
SUNLIGHT       FAIR      50  28  43 W3        30.48R
WILKERSON PASS FAIR      48  30  49 SW7       30.51S
$$

COZ069>075-291800-
...SAN LUIS VALLEY/SANGRE DE CRISTO MOUNTAINS...

CITY           SKY/WX    TMP DP  RH WIND       PRES   REMARKS
ALAMOSA        FAIR      64  36  35 VRB5      30.30F
LA VETA PASS   FAIR      55  28  35 CALM      30.45S
SAGUACHE       FAIR      61  32  33 S9        30.33S
$$

COZ035-036-038>040-291800-
...NORTHERN COLORADO FRONT RANGE...

CITY           SKY/WX    TMP DP  RH WIND       PRES   REMARKS
DENVER INTL AP FAIR      69  40  34 CALM      30.16F
DMNS CITY PARK   N/A     74  39  27 NE9       30.14F
AURORA         MOSUNNY   70  37  29 SE5       30.17F
FRONT RANGE AP MOSUNNY   70  41  35 CALM      30.18S
ERIE MUNI ARPT FAIR      69  40  34 CALM      30.15F
BOULDER MUN AP FAIR      70  36  28 NE3       30.15F
CENTENNIAL     FAIR      71  36  27 CALM      30.17F
BROOMFIELD     MOSUNNY   68  39  34 NE5       30.18F
FORT COLLINS   FAIR      68  45  42 E6        30.15F
LONGMONT       FAIR      73  37  27 SE3       30.16F
$$

COZ041-046-047-076>085-087-088-291800-
...PIKES PEAK/PALMER DIVIDE AND SOUTHERN FOOTHILLS...

CITY           SKY/WX    TMP DP  RH WIND       PRES   REMARKS
COLO. SPRINGS  PTSUNNY   69  42  37 S15       30.22F
A. F. ACADEMY  FAIR      66  37  34 S7        30.22F
SCHRIEVER AFB  NOT AVBL
ELLICOTT       FAIR     N/A N/A N/A S10G17    30.21S
FALCON         FAIR      68  35  29 S7        30.26F
FORT CARSON    FAIR      69  46  43 S14       30.19F
LIMON          FAIR      68  47  46 CALM      30.18F
MONUMENT HILL  FAIR      64  34  32 S3        30.26F
TRINIDAD       FAIR      69  40  34 SE8       30.21F
$$

COZ042>045-048>051-090-091-291800-
...NORTHEAST COLORADO...

CITY           SKY/WX    TMP DP  RH WIND       PRES   REMARKS
GREELEY ARPT   FAIR      70  46  43 E5        30.15F
AKRON          FAIR      71  44  37 VRB6      30.15F
BURLINGTON     FAIR      76  50  40 S17       30.14F
WRAY           FAIR      77  48  36 S8        30.12F
STERLING       FAIR      70  52  52 CALM      30.12F
HOLYOKE        NOT AVBL
FORT MORGAN    FAIR      71  49  45 CALM      30.15S
$$

COZ086-089-092>099-291800-
...SOUTHEAST COLORADO...

CITY           SKY/WX    TMP DP  RH WIND       PRES   REMARKS
PUEBLO         FAIR      71  47  42 SE6       30.15F
LA JUNTA       FAIR      73  50  44 VRB6      30.14F
LAMAR          FAIR      79  49  34 SW9       30.10S
SPRINGFIELD      N/A     75  54  47 S18G25    30.16F
$$




USA.gov is the U.S. government's official web portal to all federal, state and local government web resources and services.